Overview Statistics Trail Chart Weather Telemetry Raw packets
 

This is the latest recevied weather packets stored in our database for station/object K3RUP-1. If no packets are shown the sender has not sent any weather packets the latest 10 day(s).

<< 43 44 45 46 47 48 49 >>
Time Temp. Humidity Pressure Rain* Wind** Luminosity Snow
1788395413 22.22° C 99% 1016.6 hPa 0 mm - 0 W/m² -
1788395113 22.22° C 99% 1016.6 hPa 0 mm - 0 W/m² -
1788394807 22.22° C 99% 1016.5 hPa 0 mm - 0 W/m² -
1788394506 22.22° C 99% 1016.5 hPa 0 mm - 0 W/m² -
1788394196 22.22° C 99% 1016.8 hPa 0 mm - 0 W/m² -
1788393892 22.22° C 99% 1016.9 hPa 0 mm - 0 W/m² -
1788393590 22.22° C 99% 1016.7 hPa 0 mm - 0 W/m² -
1788393284 22.78° C 99% 1016.9 hPa 0 mm - 0 W/m² -
1788392979 22.78° C 99% 1017 hPa 0 mm - 0 W/m² -
1788392674 22.78° C 99% 1016.7 hPa 0 mm - 0 W/m² -
1788392372 22.78° C 99% 1016.9 hPa 0 mm - 0 W/m² -
1788392067 22.78° C 99% 1017 hPa 0 mm - 0 W/m² -
1788391767 22.78° C 99% 1016.8 hPa 0 mm - 0 W/m² -
1788391461 22.78° C 99% 1016.7 hPa 0 mm - 3 W/m² -
1788391182 22.78° C 99% 1017 hPa 0 mm - 7 W/m² -
1788390856 22.78° C 99% 1016.8 hPa 0 mm - 10 W/m² -
1788390551 22.78° C 99% 1016.9 hPa 0 mm - 12 W/m² -
1788390250 22.78° C 99% 1016.8 hPa 0 mm - 14 W/m² -
1788389944 22.78° C 99% 1016.9 hPa 0 mm - 19 W/m² -
1788389639 23.33° C 99% 1017 hPa 0 mm - 25 W/m² -
1788389338 22.78° C 99% 1016.9 hPa 0 mm - 35 W/m² -
1788389032 23.33° C 99% 1016.8 hPa 0 mm - 40 W/m² -
1788388729 22.78° C 99% 1016.7 hPa 0 mm - 47 W/m² -
1788388429 23.33° C 99% 1016.7 hPa 0 mm - 54 W/m² -
1788388124 22.78° C 99% 1016.8 hPa 0 mm - 64 W/m² -

* Rain latest hour (hover to see other rain measurements)
** Current wind speed in m/s (hover to see current wind gust speed)